Location: Ferma
(41.9500°N, 44.5167°E)
Time: 13:36:15
(UTC+00:00)

DMSP B5D2-2 - Pass Details

Date: 24 October 2021
Orbit: 789 x 806 km, 98.3° (Epoch: 07 December)

Event Time Altitude Azimuth Distance (km) Brightness Sun altitude
Rises 16:02:46 0° 12° (NNE) 3,315 7.2 -22.2°
Reaches altitude 10° 16:05:07 10° 12° (NNE) 2,378 6.5 -22.6°
Maximum altitude 16:10:23 86° 284° (WNW) 802 4.0 -23.6°
Drops below altitude 10° 16:15:35 10° 196° (SSW) 2,350 6.6 -24.6°
Sets 16:17:53 0° 196° (SSW) 3,273 7.4 -25.0°
